Back to catalog

STARLINK-33716

AliveCommunicationsVLEO
NORAD 63486·PAYLOAD·🇺🇸 United States

Launched Apr 6, 2025 from Cape Canaveral Space Force Station

Loading…

Next Passes (next 24 hours)

TLE

FreshSource: CelesTrak SupGP

Epoch: Sep 14, 2026, 14:20 UTC

1 63486C 25070AC  26257.59770833  .00017492  00000+0  63390-3 0  2578
2 63486  43.0019 272.7631 0001162 288.8371 282.2437 15.27552585    15

Track STARLINK-33716 in real time with AllMySat

Download on the App Store